Flag for Australia Weather past 2 weeks in Hobart, Tasmania, Australia

Now
55 °F

Passing clouds.


Feels Like: 51 °F
Forecast: 48 / 59 °F
Wind: 21 mph from Northwest

Location: Hobart Airport

Current Time: Oct 2, 2014 at 1:28:04 AM

Latest Report: Oct 2, 2014 at 1:00 AM


Visibility: N/A

Pressure: 29.83 "Hg

Humidity: 55%

Dew point: 39 °F

Location of HobartLocation

Historic Weather in Hobart — Graph

°F

Hobart temperature yesterday

Maximum temperature yesterday: 59 °F (at 12:00 PM)
Minimum temperature yesterday: 41 °F (at 2:30 AM)
Average temperature yesterday: 51 °F

Past Weeks' High & Low Weather Summary

 TemperatureHumidityPressure
High81 °F (Sep 28, 1:00 PM)100% (Sep 24, 8:30 PM)30.33 "Hg (Sep 24, 8:30 PM)
Low41 °F (Oct 1, 2:30 AM)14% (Sep 23, 3:30 PM)29.30 "Hg (Sep 30, 12:30 PM)
Average55 °F60%29.90 "Hg
* Reported Midnight between Sep 16 and Sep 17 — Midnight between Oct 1 and Oct 2, Hobart, Weather by CustomWeather, © 2014

Note: Actual official high and low records may vary slightly from our data, if they occured in-between our weather recording intervals... More about our weather records

Advertising

Hobart weather history for previous 24 hours

 ConditionsComfort  
Time TempWeatherWind HumidityBarometerVisibility
12:00 AM
Oct 2
55 °FPassing clouds.28 mph51%29.86 "HgN/A
11:30 PM
Oct 1
55 °FPassing clouds.22 mph55%29.86 "HgN/A
11:00 PM55 °FPassing clouds.14 mph59%29.86 "HgN/A
10:30 PM55 °FPartly cloudy.14 mph55%29.86 "HgN/A
10:00 PM54 °FPartly cloudy.13 mph63%29.89 "HgN/A
9:30 PM54 °FPartly cloudy.12 mph63%29.89 "HgN/A
9:00 PM52 °FPassing clouds.13 mph67%29.89 "HgN/A
8:30 PM52 °FPassing clouds.13 mph62%29.92 "HgN/A
8:00 PM52 °FPassing clouds.12 mph62%29.92 "HgN/A
7:30 PM52 °FPassing clouds.12 mph58%29.95 "HgN/A
7:00 PM52 °FPassing clouds.20 mph54%29.95 "HgN/A
6:30 PM54 °FPassing clouds.18 mph51%29.95 "HgN/A
6:00 PM54 °FPassing clouds.18 mph51%29.95 "HgN/A
5:30 PM54 °FPassing clouds.17 mph47%29.98 "HgN/A
5:00 PM55 °FBroken clouds.16 mph41%29.95 "HgN/A
4:30 PM57 °FScattered clouds.15 mph36%29.95 "HgN/A
4:00 PM57 °FScattered clouds.15 mph36%29.95 "HgN/A
3:30 PM57 °FPartly sunny.18 mph39%29.95 "HgN/A
3:00 PM57 °FPartly sunny.15 mph36%29.92 "HgN/A
2:30 PM55 °FPartly sunny.18 mph47%29.95 "HgN/A
2:00 PM59 °FPartly sunny.16 mph36%29.92 "HgN/A
1:30 PM57 °FScattered clouds.13 mph41%29.92 "HgN/A
1:00 PM55 °FScattered clouds.14 mph44%29.92 "HgN/A
12:00 PM59 °FScattered clouds.18 mph34%29.92 "HgN/A
11:53 AM57 °FScattered clouds.20 mph36%29.92 "HgN/A
11:30 AM55 °FBroken clouds.12 mph44%29.92 "HgN/A
11:00 AM55 °FBroken clouds.15 mph38%29.92 "HgN/A
10:30 AM54 °FScattered clouds.12 mph47%29.92 "HgN/A
10:00 AM54 °FScattered clouds.10 mph41%29.95 "HgN/A
9:30 AM52 °FBroken clouds.14 mph47%29.92 "HgN/A
9:00 AM52 °FScattered clouds.20 mph44%29.92 "HgN/A
8:00 AM50 °FPassing clouds.10 mph58%29.92 "HgN/A
7:30 AM48 °FPassing clouds.10 mph58%29.89 "HgN/A
7:00 AM46 °FPassing clouds.9 mph66%29.89 "HgN/A
6:30 AM45 °FPassing clouds.9 mph61%29.86 "HgN/A
6:00 AM45 °FPassing clouds.15 mph61%29.83 "HgN/A
5:00 AM45 °FScattered clouds.16 mph53%29.80 "HgN/A
4:52 AM45 °FScattered clouds.25 mph57%29.80 "HgN/A
4:30 AM43 °FPassing clouds.9 mph71%29.77 "HgN/A
4:00 AM43 °FPassing clouds.14 mph71%29.77 "HgN/A
3:30 AM43 °FPassing clouds.7 mph71%29.74 "HgN/A
3:00 AM43 °FPassing clouds.6 mph71%29.74 "HgN/A
2:30 AM41 °FPassing clouds.12 mph81%29.71 "HgN/A
2:02 AM43 °FRain showers. Passing clouds.25 mph76%29.71 "HgN/A
1:30 AM45 °FPassing clouds.12 mph71%29.68 "HgN/A
1:00 AM43 °FPassing clouds.14 mph71%29.68 "HgN/A
Weather by CustomWeather, © 2014

See weather overviewHow to use our weather pages